Find Starlink 4775

NORAD ID: 53934 Int'l Des: 2022-119 Owner: SPXS Country: US Constellation: starlink operational
LEOCIRCULAR

当前视图

正在加载3D地球...

About Starlink 4775

Starlink 4775 (NORAD 53934) is a starlink constellation satellite (v1.5) launched Sep 24, 2022 by SPXS of US. It operates in LEO, CIRCULAR orbit with a mass of 305.00 kg.

关于 Starlink 4775

正在加载描述...

即将过境

Passes for default location (London). Set your location on the main map for personalized predictions.

高度历史

Loading altitude history...

两行轨道根数

1 53934U 22119BA 26195.00323450 -.00000855 00000-0 -35644-4 0 9995
2 53934 53.1614 91.8715 0001818 98.0513 262.0684 15.08829520211126
Epoch: Jul 14, 2026 • Age: 8 hours

当前状态

高度 543.7 km
远地点 / 近地点 N/A
速度 7.60 km/s
星下点 45.98°N, 83.94°E
发射日期 Sep 24, 2022
运行时间 3.8 years
类型 internet

技术详情

分类 Payload
质量 305.00 kg
干质量 290.00 kg
总质量 305.00 kg
长度 0.20 m
直径 2.80 m
跨度 9.00 m
形状 Box + pan
制造商 SPXS
平台类型 Starlink
阶段状态 In Orbit
所有者/国家 SPXS/US

Most Searched